Climatologie pour Saint-Brevin les Pins
Jour • Résumé pour mars 15, 2017 Système :  Métrique    Anglais   Mixte
« - 1 jour
+ 1 jour »
Jour Semaine Mois Année Personnalisé
  Maximum : Minimum : Moyenne :
Température sous abri : -17.8 °C -13.2 °C -11.8 °C
Point de rosée : -17.8 °C -13.7 °C -13.1 °C
Humidité : Humidity % 71 % 86 %
Vitesse du vent : 0 km/h 0 km/h 11.7 km/h
Rafale : 0 km/h - -
Direction :- - ENE
Pression : 0 hPa 34808.1 hPa -
Précipitations : 0 mm    
Historical Graphs
 
 
Tableau de données pour mars 15, 2017
Heure Tempé Pt rosée Pression Vent Vitesse Rafale Humidité Taux pluie (/hr) Soleil
-17.8 °C -17.8 °C 0 hPa Calm     Humidity % 0 mm SolarRadiationWatts/m^2 W/m2 Conditions
00:00 -12.1 °C -13.1 °C 35038.3 hPa NNE 18.2 km/h 28.5 km/h 89 % 0 mm 0 W/m2
00:10 -12.1 °C -13.1 °C 35038.3 hPa NE 18.2 km/h 33.6 km/h 88 % 0 mm 0 W/m2
00:15 -12.1 °C -13.1 °C 35038.3 hPa ENE 2.6 km/h 28.5 km/h 89 % 0 mm 0 W/m2
00:20 -12.1 °C -13.1 °C 35038.3 hPa ENE 18.2 km/h 20.8 km/h 89 % 0 mm 0 W/m2
00:25 -12.1 °C -13.1 °C 35038.3 hPa ENE 18.2 km/h 25.9 km/h 89 % 0 mm 0 W/m2
00:30 -12.1 °C -13.1 °C 35038.3 hPa NNE 5.1 km/h 25.9 km/h 89 % 0 mm 0 W/m2
00:35 -12.1 °C -13.1 °C 35038.3 hPa NE 5.1 km/h 25.9 km/h 89 % 0 mm 0 W/m2
00:40 -12.1 °C -13.1 °C 35038.3 hPa NNE 7.7 km/h 25.9 km/h 89 % 0 mm 0 W/m2
00:45 -12.1 °C -13.1 °C 35038.3 hPa NNE 5.1 km/h 25.9 km/h 89 % 0 mm 0 W/m2
00:50 -12.1 °C -13.1 °C 35038.3 hPa NE 12.9 km/h 31.1 km/h 89 % 0 mm 0 W/m2
00:55 -12.1 °C -13.2 °C 35038.3 hPa NNE 15.6 km/h 31.1 km/h 88 % 0 mm 0 W/m2
01:00 -12.1 °C -13.2 °C 35038.3 hPa North 12.9 km/h 25.9 km/h 88 % 0 mm 0 W/m2
01:10 -12.2 °C -13.2 °C 35038.3 hPa North 7.7 km/h 25.9 km/h 88 % 0 mm 0 W/m2
01:15 -12.2 °C -13.2 °C 35038.3 hPa NNE 5.1 km/h 31.1 km/h 88 % 0 mm 0 W/m2
01:20 -12.2 °C -13.2 °C 35038.3 hPa NE 12.9 km/h 31.1 km/h 88 % 0 mm 0 W/m2
01:25 -12.2 °C -13.2 °C 35038.3 hPa NE 20.8 km/h 25.9 km/h 88 % 0 mm 0 W/m2
01:30 -12.2 °C -13.2 °C 35038.3 hPa NE 7.7 km/h 25.9 km/h 88 % 0 mm 0 W/m2
01:35 -12.2 °C -13.2 °C 35038.3 hPa North 10.3 km/h 25.9 km/h 89 % 0 mm 0 W/m2
01:40 -12.3 °C -13.3 °C 35038.3 hPa NE 7.7 km/h 36.2 km/h 88 % 0 mm 0 W/m2
01:45 -12.3 °C -13.3 °C 35038.3 hPa ENE 12.9 km/h 36.2 km/h 88 % 0 mm 0 W/m2
01:55 -12.3 °C -13.4 °C 35038.3 hPa NE 15.6 km/h 33.6 km/h 88 % 0 mm 0 W/m2
02:00 -12.3 °C -13.4 °C 35038.3 hPa NE 10.3 km/h 33.6 km/h 88 % 0 mm 0 W/m2
02:05 -12.3 °C -13.4 °C 35024.8 hPa NNE 10.3 km/h 25.9 km/h 88 % 0 mm 0 W/m2
02:10 -12.3 °C -13.4 °C 35024.8 hPa NNE 15.6 km/h 25.9 km/h 88 % 0 mm 0 W/m2
02:15 -12.4 °C -13.4 °C 35024.8 hPa NNE 23.3 km/h 25.9 km/h 88 % 0 mm 0 W/m2
02:20 -12.4 °C -13.4 °C 35024.8 hPa NE 2.6 km/h 25.9 km/h 88 % 0 mm 0 W/m2
02:25 -12.4 °C -13.3 °C 35024.8 hPa NE 12.9 km/h 25.9 km/h 89 % 0 mm 0 W/m2
02:30 -12.4 °C -13.3 °C 35024.8 hPa ENE 15.6 km/h 25.9 km/h 89 % 0 mm 0 W/m2
02:40 -12.4 °C -13.4 °C 35024.8 hPa NE 12.9 km/h 23.3 km/h 89 % 0 mm 0 W/m2
02:45 -12.4 °C -13.4 °C 35024.8 hPa ENE 10.3 km/h 25.9 km/h 89 % 0 mm 0 W/m2
02:50 -12.4 °C -13.4 °C 35014.6 hPa NE 10.3 km/h 28.5 km/h 89 % 0 mm 0 W/m2
02:55 -12.4 °C -13.4 °C 35024.8 hPa East 7.7 km/h 28.5 km/h 89 % 0 mm 0 W/m2
03:00 -12.4 °C -13.4 °C 35014.6 hPa ENE 15.6 km/h 28.5 km/h 89 % 0 mm 0 W/m2
03:05 -12.4 °C -13.4 °C 35014.6 hPa ENE 7.7 km/h 20.8 km/h 89 % 0 mm 0 W/m2
03:10 -12.4 °C -13.4 °C 35014.6 hPa NNE 2.6 km/h 23.3 km/h 89 % 0 mm 0 W/m2
03:15 -12.4 °C -13.4 °C 35014.6 hPa NE 7.7 km/h 23.3 km/h 89 % 0 mm 0 W/m2
03:25 -12.4 °C -13.4 °C 35014.6 hPa Calm   18.2 km/h 89 % 0 mm 0 W/m2
03:30 -12.4 °C -13.4 °C 35014.6 hPa ENE 2.6 km/h 18.2 km/h 89 % 0 mm 0 W/m2
03:35 -12.4 °C -13.4 °C 35001.1 hPa ENE 7.7 km/h 18.2 km/h 89 % 0 mm 0 W/m2
03:40 -12.4 °C -13.4 °C 35001.1 hPa East 5.1 km/h 18.2 km/h 89 % 0 mm 0 W/m2
03:45 -12.4 °C -13.4 °C 35001.1 hPa ENE 7.7 km/h 18.2 km/h 89 % 0 mm 0 W/m2
03:50 -12.4 °C -13.4 °C 35001.1 hPa East 15.6 km/h 25.9 km/h 89 % 0 mm 0 W/m2
03:55 -12.4 °C -13.4 °C 35001.1 hPa ENE 7.7 km/h 25.9 km/h 89 % 0 mm 0 W/m2
04:00 -12.4 °C -13.4 °C 35001.1 hPa ENE 5.1 km/h 23.3 km/h 89 % 0 mm 0 W/m2
04:10 -12.4 °C -13.4 °C 35001.1 hPa NE 10.3 km/h 18.2 km/h 89 % 0 mm 0 W/m2
04:15 -12.4 °C -13.4 °C 35001.1 hPa Calm   25.9 km/h 89 % 0 mm 0 W/m2
04:20 -12.4 °C -13.4 °C 35001.1 hPa East 5.1 km/h 25.9 km/h 89 % 0 mm 0 W/m2
04:25 -12.4 °C -13.4 °C 35001.1 hPa ENE 7.7 km/h 20.8 km/h 89 % 0 mm 0 W/m2
04:30 -12.4 °C -13.4 °C 34990.9 hPa ENE 12.9 km/h 20.8 km/h 89 % 0 mm 0 W/m2
04:35 -12.4 °C -13.4 °C 34990.9 hPa East 7.7 km/h 23.3 km/h 89 % 0 mm 0 W/m2
04:40 -12.4 °C -13.4 °C 34990.9 hPa East 20.8 km/h 23.3 km/h 89 % 0 mm 0 W/m2
04:45 -12.4 °C -13.4 °C 34990.9 hPa ENE 12.9 km/h 33.6 km/h 89 % 0 mm 0 W/m2
04:50 -12.5 °C -13.4 °C 34990.9 hPa East 20.8 km/h 33.6 km/h 89 % 0 mm 0 W/m2
04:55 -12.4 °C -13.4 °C 34990.9 hPa ENE 10.3 km/h 23.3 km/h 89 % 0 mm 0 W/m2
05:00 -12.4 °C -13.4 °C 34990.9 hPa ENE 18.2 km/h 23.3 km/h 89 % 0 mm 0 W/m2
05:05 -12.5 °C -13.4 °C 34990.9 hPa NE 7.7 km/h 28.5 km/h 89 % 0 mm 0 W/m2
05:10 -12.4 °C -13.4 °C 34990.9 hPa East 5.1 km/h 28.5 km/h 89 % 0 mm 0 W/m2
05:15 -12.4 °C -13.5 °C 34990.9 hPa East 2.6 km/h 25.9 km/h 88 % 0 mm 0 W/m2
05:25 -12.5 °C -13.4 °C 34990.9 hPa NE 12.9 km/h 31.1 km/h 89 % 0 mm 0 W/m2
05:30 -12.5 °C -13.4 °C 34990.9 hPa ENE 7.7 km/h 25.9 km/h 89 % 0 mm 0 W/m2
05:40 -12.6 °C -13.5 °C 34980.8 hPa ENE 23.3 km/h 28.5 km/h 89 % 0 mm 0 W/m2
05:45 -12.6 °C -13.5 °C 34990.9 hPa ENE 5.1 km/h 28.5 km/h 89 % 0 mm 0 W/m2
05:50 -12.6 °C -13.6 °C 34980.8 hPa ESE 12.9 km/h 25.9 km/h 88 % 0 mm 0 W/m2
05:55 -12.5 °C -13.6 °C 34980.8 hPa ENE 5.1 km/h 23.3 km/h 88 % 0 mm 0 W/m2
06:00 -12.6 °C -13.6 °C 34980.8 hPa ENE 10.3 km/h 20.8 km/h 88 % 0 mm 0 W/m2
06:05 -12.6 °C -13.6 °C 34980.8 hPa ENE 2.6 km/h 28.5 km/h 88 % 0 mm 0 W/m2
06:10 -12.6 °C -13.6 °C 34980.8 hPa East 18.2 km/h 28.5 km/h 88 % 0 mm 0 W/m2
06:15 -12.6 °C -13.6 °C 34980.8 hPa ESE 23.3 km/h 23.3 km/h 88 % 0 mm 0 W/m2
06:25 -12.6 °C -13.6 °C 34980.8 hPa ENE 25.9 km/h 28.5 km/h 88 % 0 mm 0 W/m2
06:30 -12.6 °C -13.6 °C 34980.8 hPa ENE 10.3 km/h 28.5 km/h 88 % 0 mm 0 W/m2
06:35 -12.6 °C -13.6 °C 34980.8 hPa East 12.9 km/h 28.5 km/h 88 % 0 mm 0 W/m2
06:40 -12.6 °C -13.6 °C 34980.8 hPa ENE 2.6 km/h 25.9 km/h 88 % 0 mm 0 W/m2
06:45 -12.6 °C -13.6 °C 34980.8 hPa ENE 7.7 km/h 20.8 km/h 88 % 0 mm 0 W/m2
06:50 -12.6 °C -13.6 °C 34980.8 hPa East 12.9 km/h 18.2 km/h 88 % 0 mm 0 W/m2
06:55 -12.6 °C -13.6 °C 34980.8 hPa East 7.7 km/h 18.2 km/h 88 % 0 mm 0 W/m2
07:00 -12.6 °C -13.5 °C 34980.8 hPa ENE 7.7 km/h 12.9 km/h 89 % 0 mm 0 W/m2
07:10 -12.6 °C -13.6 °C 34990.9 hPa East 2.6 km/h 7.7 km/h 89 % 0 mm 0 W/m2
07:15 -12.6 °C -13.6 °C 34980.8 hPa East 7.7 km/h 18.2 km/h 89 % 0 mm 0 W/m2
07:20 -12.6 °C -13.6 °C 34990.9 hPa East 2.6 km/h 18.2 km/h 89 % 0 mm 0 W/m2
07:25 -12.6 °C -13.6 °C 34980.8 hPa East 7.7 km/h 15.6 km/h 89 % 0 mm 0 W/m2
07:30 -12.7 °C -13.5 °C 34990.9 hPa NE 18.2 km/h 20.8 km/h 90 % 0 mm 0 W/m2
07:35 -12.7 °C -13.6 °C 34990.9 hPa NE 10.3 km/h 23.3 km/h 89 % 0 mm 5 W/m2
07:40 -12.7 °C -13.6 °C 34990.9 hPa NE 5.1 km/h 23.3 km/h 89 % 0 mm 7 W/m2
07:45 -12.7 °C -13.6 °C 34990.9 hPa NE 12.9 km/h 18.2 km/h 89 % 0 mm 11 W/m2
07:55 -12.7 °C -13.5 °C 34990.9 hPa NE 7.7 km/h 12.9 km/h 90 % 0 mm 19 W/m2
08:00 -12.6 °C -13.5 °C 34990.9 hPa NE 5.1 km/h 18.2 km/h 90 % 0 mm 21 W/m2
08:05 -12.6 °C -13.5 °C 34990.9 hPa NE 7.7 km/h 18.2 km/h 90 % 0 mm 26 W/m2
08:10 -12.6 °C -13.4 °C 34990.9 hPa North 2.6 km/h 18.2 km/h 90 % 0 mm 30 W/m2
08:15 -12.6 °C -13.4 °C 34990.9 hPa NNE 12.9 km/h 20.8 km/h 90 % 0 mm 35 W/m2
08:20 -12.6 °C -13.4 °C 34990.9 hPa NNE 5.1 km/h 20.8 km/h 90 % 0 mm 35 W/m2
08:25 -12.6 °C -13.4 °C 34990.9 hPa NNE 12.9 km/h 20.8 km/h 90 % 0 mm 35 W/m2
08:30 -12.5 °C -13.4 °C 34990.9 hPa North 12.9 km/h 18.2 km/h 90 % 0 mm 42 W/m2
08:40 -12.5 °C -13.4 °C 34990.9 hPa NNE 12.9 km/h 23.3 km/h 90 % 0 mm 49 W/m2
08:45 -12.4 °C -13.4 °C 34990.9 hPa NNE 15.6 km/h 20.8 km/h 89 % 0 mm 54 W/m2
08:50 -12.4 °C -13.4 °C 34990.9 hPa NE 5.1 km/h 20.8 km/h 89 % 0 mm 56 W/m2
08:55 -12.4 °C -13.3 °C 34990.9 hPa NNE 5.1 km/h 20.8 km/h 90 % 0 mm 63 W/m2
09:00 -12.4 °C -13.3 °C 34990.9 hPa NNE 12.9 km/h 28.5 km/h 90 % 0 mm 62 W/m2
09:05 -12.4 °C -13.2 °C 34990.9 hPa NNE 7.7 km/h 28.5 km/h 90 % 0 mm 60 W/m2
09:10 -12.4 °C -13.4 °C 34990.9 hPa NE 10.3 km/h 23.3 km/h 89 % 0 mm 65 W/m2
09:15 -12.4 °C -13.2 °C 34990.9 hPa NE 20.8 km/h 23.3 km/h 90 % 0 mm 69 W/m2
09:25 -12.4 °C -13.3 °C 34990.9 hPa ENE 12.9 km/h 25.9 km/h 89 % 0 mm 83 W/m2
09:30 -12.4 °C -13.3 °C 34990.9 hPa NNE 12.9 km/h 25.9 km/h 89 % 0 mm 88 W/m2
09:35 -12.4 °C -13.3 °C 34990.9 hPa NNE 20.8 km/h 25.9 km/h 89 % 0 mm 95 W/m2
09:40 -12.3 °C -13.3 °C 34990.9 hPa ENE 7.7 km/h 23.3 km/h 89 % 0 mm 97 W/m2
09:45 -12.3 °C -13.2 °C 34990.9 hPa North 10.3 km/h 31.1 km/h 89 % 0 mm 109 W/m2
09:50 -12.2 °C -13.2 °C 34990.9 hPa NE 7.7 km/h 31.1 km/h 89 % 0 mm 109 W/m2
09:55 -12.3 °C -13.3 °C 34990.9 hPa NE 5.1 km/h 28.5 km/h 88 % 0 mm 109 W/m2
10:00 -12.3 °C -13.2 °C 34990.9 hPa North 10.3 km/h 28.5 km/h 89 % 0 mm 113 W/m2
10:05 -12.3 °C -13.3 °C 34990.9 hPa NNE 7.7 km/h 28.5 km/h 88 % 0 mm 113 W/m2
10:10 -12.3 °C -13.2 °C 34990.9 hPa ENE 10.3 km/h 28.5 km/h 89 % 0 mm 109 W/m2
10:15 -12.2 °C -13.2 °C 34990.9 hPa ENE 23.3 km/h 28.5 km/h 89 % 0 mm 109 W/m2
10:20 -12.2 °C -13.3 °C 34990.9 hPa NE 15.6 km/h 28.5 km/h 88 % 0 mm 113 W/m2
10:25 -12.2 °C -13.2 °C 34990.9 hPa ENE 12.9 km/h 28.5 km/h 89 % 0 mm 118 W/m2
10:30 -12.2 °C -13.2 °C 34990.9 hPa ENE 12.9 km/h 28.5 km/h 88 % 0 mm 114 W/m2
10:35 -12.1 °C -13.2 °C 34990.9 hPa East 18.2 km/h 28.5 km/h 88 % 0 mm 118 W/m2
10:40 -12.2 °C -13.3 °C 34990.9 hPa ENE 12.9 km/h 36.2 km/h 87 % 0 mm 114 W/m2
10:45 -12.1 °C -13.3 °C 34990.9 hPa ENE 18.2 km/h 36.2 km/h 87 % 0 mm 109 W/m2
10:50 -12.2 °C -13.3 °C 34990.9 hPa East 20.8 km/h 33.6 km/h 87 % 0 mm 113 W/m2
10:55 -12.2 °C -13.3 °C 34990.9 hPa ENE 7.7 km/h 33.6 km/h 87 % 0 mm 111 W/m2
11:05 -12.3 °C -13.4 °C 34990.9 hPa NNE 5.1 km/h 31.1 km/h 87 % 0 mm 116 W/m2
11:10 -12.3 °C -13.4 °C 34990.9 hPa ENE 10.3 km/h 25.9 km/h 87 % 0 mm 121 W/m2
11:15 -12.2 °C -13.3 °C 34990.9 hPa ENE 7.7 km/h 25.9 km/h 88 % 0 mm 121 W/m2
11:20 -12.2 °C -13.3 °C 34990.9 hPa East 7.7 km/h 28.5 km/h 87 % 0 mm 127 W/m2
11:25 -12.2 °C -13.3 °C 34980.8 hPa NE 10.3 km/h 28.5 km/h 87 % 0 mm 113 W/m2
11:35 -12.2 °C -13.3 °C 34980.8 hPa East 18.2 km/h 31.1 km/h 88 % 0 mm 104 W/m2
11:40 -12.2 °C -13.3 °C 34980.8 hPa ENE 10.3 km/h 28.5 km/h 88 % 0 mm 98 W/m2
11:50 -12.2 °C -13.2 °C 34980.8 hPa ENE 10.3 km/h 33.6 km/h 88 % 0 mm 120 W/m2
11:55 -12.2 °C -13.3 °C 34980.8 hPa East 7.7 km/h 25.9 km/h 87 % 0 mm 132 W/m2
12:00 -12.1 °C -13.3 °C 34980.8 hPa ENE 20.8 km/h 31.1 km/h 87 % 0 mm 146 W/m2
12:05 -12.1 °C -13.2 °C 34980.8 hPa East 23.3 km/h 31.1 km/h 87 % 0 mm 190 W/m2
12:10 -12.1 °C -13.4 °C 34980.8 hPa ENE 28.5 km/h 33.6 km/h 85 % 0 mm 197 W/m2
12:15 -12.2 °C -13.4 °C 34980.8 hPa East 15.6 km/h 33.6 km/h 86 % 0 mm 190 W/m2
12:25 -12.1 °C -13.4 °C 34980.8 hPa East 12.9 km/h 31.1 km/h 85 % 0 mm 181 W/m2
12:30 -12.1 °C -13.4 °C 34980.8 hPa ENE 10.3 km/h 33.6 km/h 85 % 0 mm 178 W/m2
12:35 -12.1 °C -13.4 °C 34980.8 hPa NNE 12.9 km/h 33.6 km/h 85 % 0 mm 183 W/m2
12:40 -12 °C -13.3 °C 34967.2 hPa ENE 7.7 km/h 31.1 km/h 85 % 0 mm 181 W/m2
12:45 -11.9 °C -13.3 °C 34967.2 hPa ENE 18.2 km/h 31.1 km/h 84 % 0 mm 197 W/m2
12:50 -11.8 °C -13.3 °C 34967.2 hPa East 18.2 km/h 31.1 km/h 84 % 0 mm 186 W/m2
12:55 -11.8 °C -13.1 °C 34967.2 hPa ESE 18.2 km/h 31.1 km/h 85 % 0 mm 183 W/m2
13:00 -11.8 °C -13.3 °C 34967.2 hPa NE 10.3 km/h 33.6 km/h 84 % 0 mm 211 W/m2
13:05 -11.8 °C -13.2 °C 34967.2 hPa ENE 10.3 km/h 33.6 km/h 84 % 0 mm 209 W/m2
13:15 -11.7 °C -13.2 °C 34957.1 hPa NE 7.7 km/h 31.1 km/h 84 % 0 mm 209 W/m2
13:20 -11.6 °C -13.2 °C 34957.1 hPa ESE 2.6 km/h 33.6 km/h 83 % 0 mm 250 W/m2
13:25 -11.5 °C -13.2 °C 34957.1 hPa East 23.3 km/h 33.6 km/h 82 % 0 mm 301 W/m2
13:30 -11.5 °C -13.1 °C 34946.9 hPa ENE 12.9 km/h 33.6 km/h 83 % 0 mm 262 W/m2
13:40 -11.4 °C -13.2 °C 34946.9 hPa ENE 20.8 km/h 38.8 km/h 81 % 0 mm 396 W/m2
13:45 -11.2 °C -12.9 °C 34946.9 hPa East 28.5 km/h 38.8 km/h 82 % 0 mm 343 W/m2
13:55 -11 °C -12.9 °C 34933.4 hPa East 5.1 km/h 33.6 km/h 80 % 0 mm 392 W/m2
14:00 -11 °C -12.9 °C 34933.4 hPa ESE 10.3 km/h 36.2 km/h 79 % 0 mm 424 W/m2
14:05 -10.9 °C -12.9 °C 34923.2 hPa East 15.6 km/h 36.2 km/h 78 % 0 mm 443 W/m2
14:10 -10.8 °C -12.9 °C 34923.2 hPa NNE 10.3 km/h 38.8 km/h 78 % 0 mm 338 W/m2
14:15 -10.7 °C -12.7 °C 34923.2 hPa NNE 7.7 km/h 38.8 km/h 79 % 0 mm 455 W/m2
14:20 -10.7 °C -12.8 °C 34909.7 hPa ENE 18.2 km/h 33.6 km/h 78 % 0 mm 206 W/m2
14:25 -10.5 °C -12.5 °C 34909.7 hPa ENE 18.2 km/h 33.6 km/h 79 % 0 mm 628 W/m2
14:30 -10.3 °C -12.8 °C 34909.7 hPa NNE 7.7 km/h 38.8 km/h 75 % 0 mm 543 W/m2
14:40 -9.9 °C -12.3 °C 34899.5 hPa ENE 18.2 km/h 33.6 km/h 75 % 0 mm 613 W/m2
14:45 -9.7 °C -12 °C 34899.5 hPa NE 15.6 km/h 33.6 km/h 76 % 0 mm 608 W/m2
14:50 -9.9 °C -12.6 °C 34899.5 hPa ENE 20.8 km/h 36.2 km/h 73 % 0 mm 591 W/m2
14:55 -9.9 °C -12.4 °C 34889.3 hPa East 36.2 km/h 36.2 km/h 74 % 0 mm 582 W/m2
15:00 -9.7 °C -12.4 °C 34889.3 hPa East 20.8 km/h 36.2 km/h 73 % 0 mm 577 W/m2
15:05 -9.6 °C -12.3 °C 34889.3 hPa SSE 12.9 km/h 36.2 km/h 73 % 0 mm 557 W/m2
15:10 -9.3 °C -12.3 °C 34889.3 hPa ESE 12.9 km/h 36.2 km/h 71 % 0 mm 548 W/m2
15:15 -9.4 °C -12.2 °C 34889.3 hPa East 12.9 km/h 31.1 km/h 72 % 0 mm 543 W/m2
15:20 -9.6 °C -12.4 °C 34889.3 hPa ENE 18.2 km/h 38.8 km/h 71 % 0 mm 541 W/m2
15:25 -9.4 °C -11.9 °C 34889.3 hPa East 15.6 km/h 38.8 km/h 74 % 0 mm 513 W/m2
15:30 -9.4 °C -12.2 °C 34875.8 hPa ENE 23.3 km/h 36.2 km/h 72 % 0 mm 503 W/m2
15:35 -9.5 °C -12.3 °C 34875.8 hPa East 15.6 km/h 36.2 km/h 72 % 0 mm 497 W/m2
15:40 -9.3 °C -11.9 °C 34875.8 hPa SE 20.8 km/h 36.2 km/h 73 % 0 mm 490 W/m2
15:45 -9.3 °C -12.2 °C 34875.8 hPa East 12.9 km/h 36.2 km/h 71 % 0 mm 464 W/m2
15:50 -9.2 °C -12 °C 34875.8 hPa NE 7.7 km/h 36.2 km/h 72 % 0 mm 446 W/m2
16:00 -9.4 °C -12.3 °C 34865.6 hPa NE 12.9 km/h 31.1 km/h 71 % 0 mm 439 W/m2
16:10 -9.3 °C -11.9 °C 34865.6 hPa ENE 7.7 km/h 41.4 km/h 73 % 0 mm 429 W/m2
16:15 -9.2 °C -12.1 °C 34865.6 hPa NE 18.2 km/h 33.6 km/h 71 % 0 mm 420 W/m2
16:20 -9.2 °C -12 °C 34865.6 hPa SE 5.1 km/h 33.6 km/h 72 % 0 mm 404 W/m2
16:25 -9.1 °C -11.9 °C 34865.6 hPa East 5.1 km/h 28.5 km/h 72 % 0 mm 388 W/m2
16:30 -9.1 °C -11.9 °C 34852.1 hPa NNE 20.8 km/h 36.2 km/h 72 % 0 mm 373 W/m2
16:35 -9.3 °C -11.9 °C 34852.1 hPa ENE 2.6 km/h 36.2 km/h 73 % 0 mm 350 W/m2
16:40 -9.3 °C -12.1 °C 34852.1 hPa ESE 5.1 km/h 41.4 km/h 72 % 0 mm 323 W/m2
16:45 -9.3 °C -11.9 °C 34852.1 hPa North 18.2 km/h 41.4 km/h 73 % 0 mm 206 W/m2
16:55 -9.3 °C -12.1 °C 34852.1 hPa ESE 23.3 km/h 33.6 km/h 72 % 0 mm 146 W/m2
17:00 -9.3 °C -12.1 °C 34841.9 hPa East 18.2 km/h 33.6 km/h 72 % 0 mm 197 W/m2
17:05 -9.4 °C -12.2 °C 34841.9 hPa ENE 5.1 km/h 36.2 km/h 72 % 0 mm 163 W/m2
17:10 -9.3 °C -12 °C 34841.9 hPa ENE 20.8 km/h 36.2 km/h 73 % 0 mm 128 W/m2
17:15 -9.4 °C -12.2 °C 34841.9 hPa ENE 36.2 km/h 36.2 km/h 72 % 0 mm 111 W/m2
17:20 -9.4 °C -12.2 °C 34841.9 hPa ENE 23.3 km/h 38.8 km/h 72 % 0 mm 153 W/m2
17:25 -9.5 °C -12.2 °C 34841.9 hPa East 23.3 km/h 38.8 km/h 73 % 0 mm 102 W/m2
17:30 -9.5 °C -12.2 °C 34831.8 hPa East 7.7 km/h 36.2 km/h 73 % 0 mm 121 W/m2
17:40 -9.6 °C -12.1 °C 34831.8 hPa East 20.8 km/h 41.4 km/h 74 % 0 mm 109 W/m2
17:45 -9.6 °C -12.2 °C 34831.8 hPa ENE 28.5 km/h 38.8 km/h 74 % 0 mm 62 W/m2
17:50 -9.7 °C -12.1 °C 34831.8 hPa East 23.3 km/h 33.6 km/h 75 % 0 mm 51 W/m2
17:55 -9.8 °C -12.1 °C 34831.8 hPa ENE 23.3 km/h 33.6 km/h 76 % 0 mm 54 W/m2
18:00 -9.8 °C -12.1 °C 34831.8 hPa ENE 18.2 km/h 33.6 km/h 77 % 0 mm 91 W/m2
18:05 -10 °C -12.1 °C 34831.8 hPa East 15.6 km/h 44.1 km/h 78 % 0 mm 70 W/m2
18:10 -10.1 °C -12.2 °C 34831.8 hPa NNE 10.3 km/h 44.1 km/h 78 % 0 mm 67 W/m2
18:15 -10.2 °C -12.1 °C 34831.8 hPa NE 10.3 km/h 33.6 km/h 80 % 0 mm 39 W/m2
18:25 -10.5 °C -12.3 °C 34831.8 hPa ENE 10.3 km/h 36.2 km/h 81 % 0 mm 35 W/m2
18:30 -10.7 °C -12.3 °C 34831.8 hPa NE 7.7 km/h 33.6 km/h 82 % 0 mm 32 W/m2
18:35 -10.8 °C -12.3 °C 34831.8 hPa ENE 20.8 km/h 33.6 km/h 83 % 0 mm 26 W/m2
18:40 -10.9 °C -12.3 °C 34831.8 hPa East 23.3 km/h 31.1 km/h 84 % 0 mm 25 W/m2
18:45 -11 °C -12.4 °C 34831.8 hPa Calm   28.5 km/h 84 % 0 mm 21 W/m2
18:50 -11.1 °C -12.4 °C 34831.8 hPa ENE 10.3 km/h 25.9 km/h 85 % 0 mm 19 W/m2
18:55 -11.2 °C -12.6 °C 34831.8 hPa ENE 10.3 km/h 25.9 km/h 85 % 0 mm 16 W/m2
19:00 -11.3 °C -12.6 °C 34831.8 hPa NNE 5.1 km/h 25.9 km/h 85 % 0 mm 12 W/m2
19:05 -11.3 °C -12.6 °C 34831.8 hPa ENE 20.8 km/h 23.3 km/h 86 % 0 mm 9 W/m2
19:10 -11.5 °C -12.7 °C 34831.8 hPa ENE 7.7 km/h 28.5 km/h 86 % 0 mm 7 W/m2
19:15 -11.6 °C -12.8 °C 34831.8 hPa ENE 7.7 km/h 28.5 km/h 87 % 0 mm 0 W/m2
19:20 -11.7 °C -12.8 °C 34818.2 hPa NE 5.1 km/h 23.3 km/h 87 % 0 mm 0 W/m2
19:25 -11.7 °C -12.8 °C 34818.2 hPa ENE 10.3 km/h 25.9 km/h 88 % 0 mm 0 W/m2
19:30 -11.8 °C -12.8 °C 34831.8 hPa NE 2.6 km/h 25.9 km/h 88 % 0 mm 0 W/m2
19:35 -11.8 °C -12.8 °C 34831.8 hPa ENE 12.9 km/h 31.1 km/h 89 % 0 mm 0 W/m2
19:40 -11.9 °C -12.8 °C 34831.8 hPa ENE 20.8 km/h 31.1 km/h 89 % 0 mm 0 W/m2
19:45 -12 °C -12.9 °C 34831.8 hPa ENE 10.3 km/h 20.8 km/h 89 % 0 mm 0 W/m2
19:55 -12.1 °C -12.9 °C 34831.8 hPa ENE 5.1 km/h 25.9 km/h 90 % 0 mm 0 W/m2
20:00 -12.1 °C -12.9 °C 34831.8 hPa NE 5.1 km/h 25.9 km/h 90 % 0 mm 0 W/m2
20:05 -12.1 °C -12.9 °C 34831.8 hPa NE 18.2 km/h 20.8 km/h 91 % 0 mm 0 W/m2
20:10 -12.1 °C -12.9 °C 34831.8 hPa ENE 10.3 km/h 20.8 km/h 91 % 0 mm 0 W/m2
20:15 -12.2 °C -12.9 °C 34831.8 hPa ENE 18.2 km/h 23.3 km/h 91 % 0 mm 0 W/m2
20:20 -12.2 °C -12.9 °C 34831.8 hPa ENE 2.6 km/h 23.3 km/h 91 % 0 mm 0 W/m2
20:25 -12.2 °C -12.9 °C 34831.8 hPa ENE 12.9 km/h 28.5 km/h 92 % 0 mm 0 W/m2
20:30 -12.3 °C -13.1 °C 34831.8 hPa ENE 7.7 km/h 28.5 km/h 91 % 0 mm 0 W/m2
20:35 -12.3 °C -13.1 °C 34831.8 hPa East 5.1 km/h 25.9 km/h 91 % 0 mm 0 W/m2
20:40 -12.3 °C -13 °C 34831.8 hPa ENE 10.3 km/h 25.9 km/h 92 % 0 mm 0 W/m2
20:45 -12.3 °C -13 °C 34831.8 hPa NE 7.7 km/h 25.9 km/h 92 % 0 mm 0 W/m2
20:50 -12.3 °C -13.1 °C 34831.8 hPa ENE 5.1 km/h 25.9 km/h 92 % 0 mm 0 W/m2
20:55 -12.4 °C -13.1 °C 34831.8 hPa ENE 7.7 km/h 23.3 km/h 92 % 0 mm 0 W/m2
21:00 -12.4 °C -13.1 °C 34831.8 hPa ENE 7.7 km/h 23.3 km/h 92 % 0 mm 0 W/m2
21:05 -12.4 °C -13.1 °C 34818.2 hPa NE 5.1 km/h 23.3 km/h 92 % 0 mm 0 W/m2
21:10 -12.4 °C -13.2 °C 34818.2 hPa NE 20.8 km/h 20.8 km/h 92 % 0 mm 0 W/m2
21:15 -12.5 °C -13.2 °C 34831.8 hPa East 7.7 km/h 23.3 km/h 92 % 0 mm 0 W/m2
21:25 -12.6 °C -13.2 °C 34818.2 hPa ESE 10.3 km/h 23.3 km/h 92 % 0 mm 0 W/m2
21:35 -12.6 °C -13.2 °C 34818.2 hPa ENE 10.3 km/h 23.3 km/h 92 % 0 mm 0 W/m2
21:40 -12.6 °C -13.2 °C 34831.8 hPa East 15.6 km/h 23.3 km/h 92 % 0 mm 0 W/m2
21:45 -12.6 °C -13.2 °C 34831.8 hPa East 5.1 km/h 23.3 km/h 92 % 0 mm 0 W/m2
21:50 -12.6 °C -13.3 °C 34831.8 hPa East 12.9 km/h 20.8 km/h 92 % 0 mm 0 W/m2
21:55 -12.7 °C -13.3 °C 34831.8 hPa NE 7.7 km/h 20.8 km/h 93 % 0 mm 0 W/m2
22:00 -12.7 °C -13.3 °C 34831.8 hPa East 10.3 km/h 25.9 km/h 93 % 0 mm 0 W/m2
22:05 -12.7 °C -13.3 °C 34831.8 hPa East 18.2 km/h 25.9 km/h 93 % 0 mm 0 W/m2
22:10 -12.8 °C -13.4 °C 34831.8 hPa NE 10.3 km/h 23.3 km/h 93 % 0 mm 0 W/m2
22:15 -12.8 °C -13.4 °C 34831.8 hPa ENE 10.3 km/h 20.8 km/h 93 % 0 mm 0 W/m2
22:20 -12.8 °C -13.3 °C 34831.8 hPa ENE 7.7 km/h 23.3 km/h 94 % 0 mm 0 W/m2
22:25 -12.8 °C -13.3 °C 34831.8 hPa ENE 10.3 km/h 23.3 km/h 94 % 0 mm 0 W/m2
22:30 -12.8 °C -13.4 °C 34831.8 hPa NE 15.6 km/h 25.9 km/h 93 % 0 mm 0 W/m2
22:40 -12.9 °C -13.4 °C 34831.8 hPa ENE 2.6 km/h 23.3 km/h 93 % 0 mm 0 W/m2
22:45 -12.9 °C -13.5 °C 34831.8 hPa ENE 10.3 km/h 18.2 km/h 93 % 0 mm 0 W/m2
22:50 -12.9 °C -13.5 °C 34831.8 hPa ENE 5.1 km/h 18.2 km/h 93 % 0 mm 0 W/m2
22:55 -12.9 °C -13.4 °C 34818.2 hPa ENE 10.3 km/h 18.2 km/h 94 % 0 mm 0 W/m2
23:05 -12.9 °C -13.4 °C 34818.2 hPa ENE 12.9 km/h 20.8 km/h 94 % 0 mm 0 W/m2
23:10 -13 °C -13.6 °C 34818.2 hPa ENE 10.3 km/h 18.2 km/h 94 % 0 mm 0 W/m2
23:15 -13.1 °C -13.6 °C 34818.2 hPa Calm   10.3 km/h 94 % 0 mm 0 W/m2
23:20 -13.2 °C -13.7 °C 34818.2 hPa NE 7.7 km/h 10.3 km/h 94 % 0 mm 0 W/m2
23:25 -13.2 °C -13.7 °C 34808.1 hPa ENE 7.7 km/h 12.9 km/h 94 % 0 mm 0 W/m2
23:35 -13.2 °C -13.6 °C 34808.1 hPa ENE 7.7 km/h 20.8 km/h 95 % 0 mm 0 W/m2
23:40 -13.1 °C -13.6 °C 34808.1 hPa ENE 7.7 km/h 20.8 km/h 95 % 0 mm 0 W/m2
23:45 -13.1 °C -13.5 °C 34808.1 hPa NE 5.1 km/h 20.8 km/h 95 % 0 mm 0 W/m2
23:55 -13.1 °C -13.6 °C 34808.1 hPa ENE 7.7 km/h 23.3 km/h 95 % 0 mm 0 W/m2
Avec l'autorisation de Weather Underground - 1.5 mb